period_start,C,m1,H,J0,J1,J2,J3,J4,J5,JA,JB,JC,JD,JJ,JK,JN,#
2017-03-16 00:02:27,0.18,7.89,0.00,24.01,26.80,30.12,14.32,49.95,1006.61,2027.93,1499.32,1661.51,1892.49,599.99,588.36,51.71,0000 0000 0000 0000 000000
2017-03-16 00:07:29,0.18,7.90,0.00,23.94,26.81,30.12,14.37,49.93,1006.40,2027.89,1497.86,1660.52,1891.40,600.24,588.39,51.76,0000 0000 0000 0000 000000
2017-03-16 00:12:30,0.17,7.91,0.00,23.98,26.82,30.11,14.33,49.97,1006.37,2027.80,1496.52,1659.54,1890.30,599.87,588.04,51.81,0000 0000 0000 0000 000000
2017-03-16 00:17:31,0.17,7.92,0.00,23.97,26.82,30.12,14.25,49.95,1006.36,2027.71,1495.18,1658.55,1889.15,599.60,587.71,51.86,0000 0000 0000 0000 000000
2017-03-16 00:22:32,0.19,7.93,0.00,23.97,26.82,30.12,14.36,49.98,1006.36,2027.66,1493.74,1657.59,1888.02,599.93,588.03,51.91,0000 0000 0000 0000 000000
2017-03-16 00:27:33,0.14,7.94,0.00,24.01,26.82,30.12,14.32,49.91,1006.31,2027.47,1492.45,1656.62,1886.85,600.03,588.08,51.96,0000 0000 0000 0000 000000
2017-03-16 00:32:35,0.19,7.94,0.00,24.01,26.82,30.13,14.32,49.87,1006.05,2027.49,1491.10,1655.73,1885.75,600.01,587.75,52.01,0000 0000 0000 0000 000000
2017-03-16 00:37:36,0.14,7.95,0.00,23.99,26.82,30.12,14.24,49.94,1005.92,2027.23,1489.84,1654.77,1884.68,600.00,587.73,52.06,0000 0000 0000 0000 000000
2017-03-16 00:42:38,0.16,7.96,0.00,23.99,26.84,30.12,14.36,49.93,1005.90,2027.12,1488.65,1653.82,1883.62,599.96,587.89,52.11,0000 0000 0000 0000 000000
2017-03-16 00:47:39,0.19,7.97,0.00,23.99,26.85,30.13,14.33,49.99,1005.88,2027.11,1487.29,1652.84,1882.48,600.04,587.76,52.17,0000 0000 0000 0000 000000
2017-03-16 00:52:41,0.21,7.98,0.00,23.99,26.85,30.11,14.33,49.92,1005.87,2027.08,1485.72,1651.81,1881.28,599.99,587.84,52.22,0000 0000 0000 0000 000000
2017-03-16 00:57:42,0.17,7.99,0.00,24.04,26.85,30.12,14.26,50.01,1005.79,2027.06,1484.47,1650.82,1880.12,599.76,587.42,52.27,0000 0000 0000 0000 000000
2017-03-16 01:02:43,0.20,8.00,0.00,24.04,26.85,30.15,14.30,50.04,1005.47,2027.03,1483.15,1649.74,1878.86,600.10,587.59,52.32,0000 0000 0000 0000 000000
2017-03-16 01:07:44,0.21,8.01,0.00,24.05,26.87,30.13,14.36,50.00,1005.40,2027.01,1481.63,1648.74,1877.66,600.29,587.71,52.37,0000 0000 0000 0000 000000
2017-03-16 01:12:45,0.21,8.02,0.00,24.02,26.87,30.14,14.33,50.01,1005.39,2027.00,1480.08,1647.68,1876.44,599.82,587.17,52.42,0000 0000 0000 0000 000000
2017-03-16 01:17:47,0.22,8.03,0.00,24.03,26.87,30.16,14.33,49.92,1005.38,2027.00,1478.45,1646.56,1875.15,599.92,587.49,52.47,0000 0000 0000 0000 000000
2017-03-16 01:22:49,0.22,8.05,0.00,24.06,26.87,30.15,14.31,49.95,1005.38,2027.00,1476.78,1645.51,1873.91,599.95,587.34,52.52,0000 0000 0000 0000 000000
2017-03-16 01:27:50,0.18,8.05,0.00,24.08,26.87,30.14,14.31,49.95,1005.38,2027.00,1475.52,1644.57,1872.84,600.02,587.34,52.57,0000 0000 0000 0000 000000
2017-03-16 01:32:51,0.20,8.06,0.00,24.06,26.89,30.14,14.31,49.98,1005.36,2027.00,1474.03,1643.57,1871.70,599.83,587.31,52.62,0000 0000 0000 0000 000000
2017-03-16 01:37:52,0.20,8.07,0.00,24.07,26.90,30.15,14.28,50.01,1005.30,2027.00,1472.62,1642.62,1870.58,600.18,587.36,52.67,0000 0000 0000 0000 000000
2017-03-16 01:42:54,0.19,8.09,0.00,24.09,26.90,30.15,14.26,50.05,1005.15,2027.00,1471.38,1641.59,1869.45,599.73,586.96,52.72,0000 0000 0000 0000 000000
2017-03-16 01:47:55,0.18,8.09,0.00,24.10,26.90,30.15,14.23,49.98,1004.95,2027.00,1469.97,1640.62,1868.30,600.13,587.04,52.77,0000 0000 0000 0000 000000
2017-03-16 01:52:56,0.20,8.10,0.00,24.11,26.90,30.16,14.31,50.08,1004.91,2027.00,1468.57,1639.67,1867.19,600.07,587.02,52.82,0000 0000 0000 0000 000000
2017-03-16 01:57:58,0.20,8.12,0.00,24.11,26.90,30.17,14.34,50.07,1004.92,2027.00,1467.18,1638.64,1865.97,600.10,587.15,52.87,0000 0000 0000 0000 000000
2017-03-16 02:02:59,0.22,8.13,0.00,24.13,26.92,30.16,14.23,49.96,1004.91,2026.99,1465.63,1637.58,1864.75,600.05,587.05,52.92,0000 0000 0000 0000 000000
2017-03-16 02:08:00,0.19,8.14,0.00,24.15,26.92,30.17,14.24,49.95,1004.90,2026.99,1464.29,1636.59,1863.65,599.70,586.50,52.97,0000 0000 0000 0000 000000
2017-03-16 02:13:02,0.22,8.15,0.00,24.14,26.92,30.17,14.28,50.01,1004.90,2026.99,1462.78,1635.56,1862.42,600.04,586.91,53.03,0000 0000 0000 0000 000000
2017-03-16 02:18:03,0.20,8.16,0.00,24.16,26.92,30.18,14.26,50.02,1004.90,2026.99,1461.37,1634.51,1861.23,599.83,586.76,53.08,0000 0000 0000 0000 000000
2017-03-16 02:23:05,0.21,8.17,0.00,24.19,26.92,30.17,14.32,49.99,1004.90,2026.99,1459.85,1633.48,1860.00,600.29,587.07,53.13,0000 0000 0000 0000 000000
2017-03-16 02:28:06,0.21,8.18,0.00,24.20,26.95,30.18,14.33,50.00,1004.88,2026.98,1458.37,1632.40,1858.74,600.17,586.93,53.18,0000 0000 0000 0000 000000
2017-03-16 02:33:08,0.21,8.19,0.00,24.20,26.95,30.20,14.28,50.05,1004.89,2026.98,1456.89,1631.38,1857.58,600.00,586.78,53.23,0000 0000 0000 0000 000000
2017-03-16 02:38:09,0.21,8.20,0.00,24.24,26.95,30.20,14.28,49.98,1004.90,2026.98,1455.44,1630.28,1856.40,600.00,586.79,53.28,0000 0000 0000 0000 000000
2017-03-16 02:43:10,0.19,8.21,0.00,24.24,26.97,30.22,14.25,50.01,1004.90,2026.99,1454.00,1629.25,1855.27,600.05,586.71,53.33,0000 0000 0000 0000 000000
2017-03-16 02:48:11,0.20,8.22,0.00,24.24,26.97,30.21,14.24,50.00,1004.90,2026.98,1452.64,1628.23,1854.22,599.91,586.55,53.38,0000 0000 0000 0000 000000
2017-03-16 02:53:12,0.19,8.23,0.00,24.25,26.98,30.22,14.27,50.02,1004.90,2026.93,1451.26,1627.18,1852.99,599.98,586.75,53.43,0000 0000 0000 0000 000000
2017-03-16 02:58:13,0.21,8.24,0.00,24.26,27.00,30.23,14.23,50.04,1004.89,2026.90,1449.79,1626.19,1851.82,599.91,586.58,53.48,0000 0000 0000 0000 000000
2017-03-16 03:03:14,0.19,8.25,0.00,24.27,27.00,30.25,14.31,50.09,1004.89,2026.86,1448.44,1625.15,1850.69,599.87,586.49,53.53,0000 0000 0000 0000 000000
2017-03-16 03:08:16,0.19,8.26,0.00,24.29,27.02,30.24,14.35,50.02,1004.89,2026.74,1446.95,1624.14,1849.54,599.95,586.51,53.58,0000 0000 0000 0000 000000
2017-03-16 03:13:17,0.17,8.27,0.00,24.31,27.02,30.25,14.27,50.00,1004.84,2026.57,1445.47,1623.10,1848.36,599.94,586.39,53.63,0000 0000 0000 0000 000000
2017-03-16 03:18:18,0.24,8.28,0.00,24.30,27.03,30.23,14.27,50.08,1004.71,2026.55,1443.82,1622.06,1847.10,599.88,586.32,53.68,0000 0000 0000 0000 000000
2017-03-16 03:23:19,0.16,8.29,0.00,24.31,27.05,30.25,14.30,50.15,1004.54,2026.32,1442.62,1621.07,1845.90,600.05,586.42,53.73,0000 0000 0000 0000 000000
2017-03-16 03:28:21,0.17,8.30,0.00,24.34,27.05,30.26,14.23,50.04,1004.45,2026.10,1441.15,1620.01,1844.74,599.78,586.00,53.78,0000 0000 0000 0000 000000
2017-03-16 03:33:22,0.21,8.31,0.00,24.35,27.07,30.28,14.17,50.00,1004.57,2026.05,1439.76,1619.03,1843.60,599.84,586.14,53.83,0000 0000 0000 0000 000000
2017-03-16 03:38:23,0.20,8.32,0.00,24.33,27.07,30.28,14.24,50.00,1004.69,2026.05,1438.35,1618.03,1842.50,599.77,586.27,53.88,0000 0000 0000 0000 000000
2017-03-16 03:43:25,0.22,8.33,0.00,24.36,27.09,30.30,14.23,50.08,1004.52,2026.02,1436.85,1616.93,1841.26,600.06,586.32,53.94,0000 0000 0000 0000 000000
2017-03-16 03:48:26,0.20,8.34,0.00,24.37,27.10,30.29,14.20,50.03,1004.46,2026.00,1435.46,1615.89,1839.99,599.75,585.98,53.99,0000 0000 0000 0000 000000
2017-03-16 03:53:27,0.25,8.35,0.00,24.38,27.10,30.31,14.23,50.06,1004.42,2026.00,1433.85,1614.82,1838.76,599.91,586.06,54.04,0000 0000 0000 0000 000000
2017-03-16 03:58:29,0.18,8.36,0.00,24.39,27.11,30.38,14.26,50.05,1004.42,2026.02,1432.51,1613.91,1837.69,600.15,586.34,54.09,0000 0000 0000 0000 000000
2017-03-16 04:03:30,0.19,8.37,0.00,24.40,27.11,30.39,14.29,50.06,1004.42,2026.04,1431.13,1612.98,1836.62,600.01,586.18,54.14,0000 0000 0000 0000 000000
2017-03-16 04:08:31,0.23,8.39,0.00,24.40,27.10,30.39,14.27,50.02,1004.42,2026.18,1429.73,1612.06,1835.56,599.96,586.05,54.19,0000 0000 0000 0000 000000
2017-03-16 04:13:32,0.25,8.40,0.00,24.46,27.10,30.39,14.20,49.93,1004.41,2026.55,1428.40,1611.14,1834.51,599.75,585.70,54.24,0000 0000 0000 0000 000000
2017-03-16 04:18:34,0.22,8.41,0.00,24.47,27.10,30.39,14.30,50.04,1004.41,2026.82,1426.99,1610.19,1833.41,600.17,586.18,54.29,0000 0000 0000 0000 000000
2017-03-16 04:23:35,0.23,8.42,0.00,24.45,27.10,30.39,14.29,49.99,1004.41,2026.90,1425.46,1609.13,1832.20,599.98,585.99,54.34,0000 0000 0000 0000 000000
2017-03-16 04:28:36,0.19,8.43,0.00,24.50,27.10,30.41,14.20,50.07,1004.41,2026.83,1423.98,1608.14,1831.04,599.81,585.80,54.39,0000 0000 0000 0000 000000
2017-03-16 04:33:38,0.22,8.44,0.00,24.50,27.10,30.40,14.35,50.02,1004.41,2026.92,1422.63,1607.18,1829.93,600.14,586.14,54.44,0000 0000 0000 0000 000000
2017-03-16 04:38:39,0.19,8.45,0.00,24.52,27.10,30.41,14.31,50.03,1004.41,2026.89,1421.26,1606.23,1828.81,599.99,585.97,54.49,0000 0000 0000 0000 000000
2017-03-16 04:43:40,0.22,8.46,0.00,24.54,27.10,30.40,14.28,50.07,1004.41,2026.92,1419.81,1605.26,1827.70,599.79,585.43,54.54,0000 0000 0000 0000 000000
2017-03-16 04:48:41,0.21,8.47,0.00,24.53,27.10,30.42,14.25,50.03,1004.41,2026.94,1418.43,1604.28,1826.57,599.99,585.91,54.59,0000 0000 0000 0000 000000
2017-03-16 04:53:43,0.20,8.48,0.00,24.53,27.10,30.41,14.19,50.05,1004.40,2026.96,1416.95,1603.33,1825.47,599.84,585.61,54.64,0000 0000 0000 0000 000000
2017-03-16 04:58:44,0.19,8.49,0.00,24.56,27.10,30.42,14.19,50.04,1004.41,2026.97,1415.70,1602.41,1824.46,599.71,585.49,54.69,0000 0000 0000 0000 000000
2017-03-16 05:03:45,0.19,8.50,0.00,24.61,27.10,30.40,14.26,49.98,1004.41,2026.99,1414.50,1601.55,1823.42,599.72,585.48,54.74,0000 0000 0000 0000 000000
2017-03-16 05:08:47,0.18,8.52,0.00,24.60,27.10,30.39,14.32,50.05,1004.41,2026.97,1413.15,1600.63,1822.30,600.08,585.85,54.79,0000 0000 0000 0000 000000
2017-03-16 05:13:47,0.21,8.52,0.00,24.60,27.10,30.42,14.22,50.06,1004.41,2026.98,1411.79,1599.66,1821.24,599.94,585.74,54.85,0000 0000 0000 0000 000000
2017-03-16 05:18:49,0.17,8.53,0.00,24.61,27.10,30.41,14.24,50.15,1004.41,2026.98,1410.54,1598.82,1820.11,599.95,585.65,54.90,0000 0000 0000 0000 000000
2017-03-16 05:23:50,0.20,8.55,0.00,24.61,27.10,30.41,14.21,50.01,1004.41,2026.96,1409.06,1597.89,1818.92,599.98,585.69,54.95,0000 0000 0000 0000 000000
2017-03-16 05:28:51,0.18,8.56,0.00,24.62,27.10,30.40,14.26,50.02,1004.41,2026.96,1407.83,1596.95,1817.84,600.10,585.91,55.00,0000 0000 0000 0000 000000
2017-03-16 05:33:53,0.17,8.56,0.00,24.65,27.11,30.39,14.29,50.06,1004.41,2026.94,1406.80,1596.01,1816.82,600.25,585.85,55.05,0000 0000 0000 0000 000000
2017-03-16 05:38:54,0.21,8.58,0.00,24.63,27.12,30.39,14.24,50.09,1004.41,2026.87,1405.47,1595.06,1815.71,600.10,585.75,55.10,0000 0000 0000 0000 000000
2017-03-16 05:43:55,0.18,8.58,0.00,24.64,27.12,30.42,14.27,50.21,1004.41,2026.64,1404.08,1594.07,1814.60,599.97,585.55,55.15,0000 0000 0000 0000 000000
2017-03-16 05:48:56,0.18,8.59,0.00,24.63,27.12,30.41,14.24,50.21,1004.41,2026.41,1402.62,1593.08,1813.39,600.03,585.76,55.20,0000 0000 0000 0000 000000
2017-03-16 05:53:57,0.15,8.60,0.00,24.64,27.13,30.40,14.27,50.15,1004.41,2026.19,1401.36,1592.16,1812.35,599.90,585.58,55.25,0000 0000 0000 0000 000000
2017-03-16 05:58:59,0.17,8.61,0.00,24.65,27.15,30.44,14.34,50.24,1004.42,2026.13,1400.10,1591.17,1811.25,600.42,586.06,55.30,0000 0000 0000 0000 000000
2017-03-16 06:04:00,0.20,8.62,0.00,24.64,27.15,30.41,14.31,50.27,1004.44,2026.03,1398.97,1590.27,1810.19,600.14,585.71,55.35,0000 0000 0000 0000 000000
2017-03-16 06:09:01,0.24,8.63,0.00,24.65,27.16,30.41,14.27,50.17,1004.43,2026.01,1397.21,1589.03,1808.75,600.26,585.71,55.40,0000 0000 0000 0000 000000
2017-03-16 06:14:02,0.23,8.64,0.00,24.66,27.17,30.42,14.21,50.18,1004.46,2026.00,1395.78,1587.92,1807.55,600.07,585.67,55.45,0000 0000 0000 0000 000000
2017-03-16 06:19:04,0.21,8.66,0.00,24.66,27.17,30.44,14.21,50.12,1004.56,2026.00,1394.36,1586.88,1806.34,599.48,585.18,55.50,0000 0000 0000 0000 000000
2017-03-16 06:24:05,0.22,8.67,0.00,24.68,27.19,30.45,14.26,50.11,1004.66,2026.00,1392.84,1585.82,1805.13,600.04,585.67,55.55,0000 0000 0000 0000 000000
2017-03-16 06:29:07,0.23,8.68,0.00,24.67,27.20,30.43,14.37,50.17,1004.85,2026.00,1391.44,1584.75,1803.88,600.47,586.37,55.60,0000 0000 0000 0000 000000
2017-03-16 06:34:08,0.23,8.69,0.00,24.67,27.20,30.49,14.20,50.07,1004.89,2025.99,1389.92,1583.69,1802.68,599.61,585.50,55.66,0000 0000 0000 0000 000000
2017-03-16 06:39:10,0.23,8.70,0.00,24.69,27.22,30.49,14.30,50.20,1004.90,2025.99,1388.53,1582.60,1801.46,600.32,586.11,55.71,0000 0000 0000 0000 000000
2017-03-16 06:44:11,0.20,8.71,0.00,24.67,27.22,30.48,14.30,50.22,1004.89,2025.99,1387.15,1581.59,1800.29,600.33,586.09,55.76,0000 0000 0000 0000 000000
2017-03-16 06:49:12,0.22,8.72,0.00,24.68,27.24,30.50,14.22,50.08,1004.90,2025.97,1385.67,1580.54,1799.02,600.06,586.00,55.81,0000 0000 0000 0000 000000
2017-03-16 06:54:13,0.20,8.73,0.00,24.68,27.25,30.52,14.16,50.09,1004.90,2025.97,1384.30,1579.58,1797.89,599.48,585.39,55.86,0000 0000 0000 0000 000000
2017-03-16 06:59:14,0.20,8.74,0.00,24.70,27.25,30.51,14.21,50.15,1004.91,2025.93,1382.93,1578.59,1796.78,600.09,585.87,55.91,0000 0000 0000 0000 000000
2017-03-16 07:04:15,0.22,8.76,0.00,24.68,27.27,30.51,14.21,50.17,1004.94,2025.80,1381.57,1577.49,1795.49,599.96,585.86,55.96,0000 0000 0000 0000 000000
2017-03-16 07:09:17,0.18,8.77,0.00,24.67,27.27,30.52,14.22,50.16,1005.06,2025.50,1380.16,1576.46,1794.31,599.88,585.84,56.01,0000 0000 0000 0000 000000
2017-03-16 07:14:18,0.17,8.77,0.00,24.67,27.29,30.50,14.23,50.12,1005.28,2025.35,1378.78,1575.51,1793.18,599.67,585.79,56.06,0000 0000 0000 0000 000000
2017-03-16 07:19:19,0.18,8.78,0.00,24.70,27.30,30.49,14.25,50.17,1005.36,2025.18,1377.55,1574.61,1792.15,600.21,586.35,56.11,0000 0000 0000 0000 000000
2017-03-16 07:24:20,0.20,8.79,0.00,24.71,27.31,30.52,14.26,50.14,1005.39,2025.22,1376.19,1573.64,1791.16,600.13,585.99,56.16,0000 0000 0000 0000 000000
2017-03-16 07:29:22,0.28,8.81,0.00,24.71,27.32,30.52,14.25,50.23,1005.39,2025.27,1374.25,1572.48,1789.79,600.19,586.27,56.21,0000 0000 0000 0000 000000
2017-03-16 07:34:23,0.19,8.82,0.00,24.71,27.32,30.53,14.21,50.17,1005.39,2025.15,1372.87,1571.50,1788.63,600.13,586.13,56.26,0000 0000 0000 0000 000000
2017-03-16 07:39:24,0.22,8.83,0.00,24.71,27.34,30.54,14.31,50.23,1005.41,2025.08,1371.51,1570.50,1787.48,600.03,586.10,56.31,0000 0000 0000 0000 000000
2017-03-16 07:44:25,0.22,8.84,0.00,24.69,27.35,30.53,14.30,50.24,1005.43,2025.04,1369.91,1569.37,1786.13,600.07,586.20,56.36,0000 0000 0000 0000 000000
2017-03-16 07:49:26,0.24,8.85,0.00,24.67,27.35,30.51,14.28,50.30,1005.59,2025.04,1368.49,1568.30,1784.87,600.01,586.40,56.41,0000 0000 0000 0000 000000
2017-03-16 07:54:28,0.23,8.87,0.00,24.68,27.37,30.54,14.25,50.27,1005.80,2025.02,1366.97,1567.10,1783.63,600.10,586.42,56.46,0000 0000 0000 0000 000000
2017-03-16 07:59:29,0.22,8.88,0.00,24.68,27.37,30.53,14.26,50.42,1005.87,2025.01,1365.64,1566.10,1782.46,599.71,586.07,56.51,0000 0000 0000 0000 000000
2017-03-16 08:04:30,0.34,8.89,0.00,24.68,27.37,30.51,14.27,50.59,1005.91,2025.01,1363.83,1564.69,1780.79,599.92,586.46,56.56,0000 0000 0000 0000 000000
2017-03-16 08:09:32,0.06,8.90,0.00,24.70,27.37,30.52,14.21,50.62,1005.89,2025.03,1363.02,1563.98,1779.97,599.64,586.00,56.62,0000 0000 0000 0000 000000
2017-03-16 08:14:33,0.15,8.91,0.00,24.71,27.38,30.51,14.24,50.54,1005.89,2025.01,1362.63,1563.22,1779.13,599.69,585.99,56.67,0000 0000 0000 0000 000000
2017-03-16 08:19:34,0.08,8.91,0.00,24.70,27.39,30.52,14.25,50.43,1005.88,2025.00,1361.99,1562.79,1778.51,599.79,586.18,56.72,0000 0000 0000 0000 000000
2017-03-16 08:24:35,0.13,8.92,0.00,24.69,27.39,30.50,14.34,50.68,1005.87,2025.00,1361.18,1562.04,1777.88,600.22,586.48,56.77,0000 0000 0000 0000 000000
2017-03-16 08:29:37,0.15,8.92,0.00,24.69,27.39,30.52,14.36,50.70,1005.87,2025.00,1360.54,1561.50,1777.07,600.25,586.71,56.82,0000 0000 0000 0000 000000
2017-03-16 08:34:38,0.07,8.93,0.00,24.71,27.39,30.53,14.20,50.64,1005.87,2025.00,1359.89,1560.99,1776.42,600.06,586.34,56.87,0000 0000 0000 0000 000000
2017-03-16 08:39:39,0.13,8.94,0.00,24.79,27.38,30.57,14.28,50.63,1005.86,2025.00,1359.07,1560.33,1775.92,599.83,586.04,56.92,0000 0000 0000 0000 000000
2017-03-16 08:44:40,0.10,8.94,0.00,24.82,27.38,30.62,14.23,50.66,1005.87,2024.99,1358.44,1559.98,1775.09,599.98,586.00,56.97,0000 0000 0000 0000 000000
2017-03-16 08:49:41,0.10,8.95,0.00,24.77,27.37,30.60,14.23,50.58,1005.87,2024.99,1357.98,1559.27,1774.63,599.84,586.05,57.02,0000 0000 0000 0000 000000
2017-03-16 08:54:43,0.09,8.95,0.00,24.76,27.37,30.62,14.33,50.49,1005.88,2024.99,1357.25,1558.99,1774.01,599.84,586.17,57.07,0000 0000 0000 0000 000000
2017-03-16 08:59:45,0.10,8.96,0.00,24.71,27.37,30.59,14.22,50.35,1006.11,2024.98,1356.90,1558.43,1773.45,599.84,586.33,57.12,0000 0000 0000 0000 000000
2017-03-16 09:04:46,0.08,8.96,0.00,24.69,27.37,30.56,14.23,50.26,1006.36,2024.98,1356.13,1558.01,1773.00,599.84,586.41,57.17,0000 0000 0000 0000 000000
2017-03-16 09:09:47,0.04,8.96,0.00,24.69,27.37,30.49,14.21,50.29,1006.36,2024.98,1355.93,1557.88,1772.65,600.10,586.75,57.22,0000 0000 0000 0000 000000
2017-03-16 09:14:48,0.14,8.97,0.00,24.69,27.37,30.49,14.25,50.27,1006.37,2024.99,1355.11,1557.11,1772.03,600.03,586.93,57.27,0000 0000 0000 0000 000000
2017-03-16 09:19:49,0.08,8.97,0.00,24.70,27.36,30.50,14.27,50.27,1006.39,2024.98,1354.57,1556.92,1771.61,599.89,586.42,57.32,0000 0000 0000 0000 000000
2017-03-16 09:24:51,0.13,8.98,0.00,24.68,27.35,30.48,14.23,50.43,1006.45,2024.98,1353.72,1556.13,1771.00,600.03,586.81,57.37,0000 0000 0000 0000 000000
2017-03-16 09:29:52,0.07,8.99,0.00,24.65,27.35,30.47,14.27,50.34,1006.46,2024.96,1353.04,1555.98,1770.30,599.91,586.76,57.42,0000 0000 0000 0000 000000
2017-03-16 09:34:53,0.11,8.99,0.00,24.65,27.35,30.47,14.22,50.39,1006.39,2024.98,1352.59,1555.37,1769.99,600.03,586.76,57.47,0000 0000 0000 0000 000000
2017-03-16 09:39:54,0.07,9.00,0.00,24.63,27.35,30.47,14.20,50.30,1006.37,2024.98,1352.00,1555.01,1769.33,599.58,586.45,57.53,0000 0000 0000 0000 000000
2017-03-16 09:44:56,0.10,9.00,0.00,24.62,27.34,30.46,14.22,50.27,1006.37,2024.98,1351.26,1554.74,1768.99,599.65,586.61,57.58,0000 0000 0000 0000 000000
2017-03-16 09:49:57,0.08,9.01,0.00,24.61,27.32,30.44,14.26,50.24,1006.36,2024.99,1350.97,1554.06,1768.44,600.14,586.93,57.63,0000 0000 0000 0000 000000
2017-03-16 09:54:58,0.08,9.01,0.00,24.59,27.32,30.44,14.25,50.21,1006.40,2024.99,1350.21,1553.96,1768.00,600.18,586.99,57.68,0000 0000 0000 0000 000000
2017-03-16 09:59:59,0.14,9.01,0.00,24.61,27.32,30.43,14.32,50.28,1006.42,2024.97,1349.71,1553.27,1767.42,600.09,587.05,57.73,0000 0000 0000 0000 000000
2017-03-16 10:05:00,0.04,9.02,0.00,24.59,27.32,30.43,14.34,50.28,1006.39,2024.97,1349.02,1552.99,1767.00,600.42,587.31,57.78,0000 0000 0000 0000 000000
2017-03-16 10:10:01,0.15,9.02,0.00,24.58,27.30,30.43,14.35,50.32,1006.38,2024.99,1348.45,1552.58,1766.39,600.41,587.18,57.83,0000 0000 0000 0000 000000
2017-03-16 10:15:03,0.05,9.03,0.00,24.57,27.30,30.42,14.32,50.44,1006.37,2024.98,1347.90,1552.02,1766.00,599.81,586.73,57.88,0000 0000 0000 0000 000000
2017-03-16 10:20:04,0.10,9.03,0.00,24.58,27.30,30.43,14.28,50.34,1006.36,2024.99,1347.09,1551.94,1765.47,600.19,587.08,57.93,0000 0000 0000 0000 000000
2017-03-16 10:25:06,0.11,9.04,0.00,24.57,27.29,30.43,14.29,50.40,1006.36,2024.99,1346.63,1551.18,1765.01,600.09,587.01,57.98,0000 0000 0000 0000 000000
2017-03-16 10:30:07,0.06,9.04,0.00,24.52,27.27,30.41,14.39,50.38,1006.36,2024.99,1346.02,1551.00,1764.57,600.19,587.29,58.03,0000 0000 0000 0000 000000
2017-03-16 10:35:09,0.10,9.05,0.00,24.49,27.27,30.41,14.28,50.33,1006.36,2024.99,1345.49,1550.72,1764.02,599.92,587.04,58.08,0000 0000 0000 0000 000000
2017-03-16 10:40:10,0.05,9.05,0.00,24.51,27.27,30.40,14.28,50.33,1006.36,2024.99,1345.01,1550.05,1763.87,600.19,587.10,58.13,0000 0000 0000 0000 000000
2017-03-16 10:45:11,0.09,9.06,0.00,24.50,27.26,30.40,14.25,50.27,1006.36,2024.99,1344.48,1549.98,1763.09,599.96,587.19,58.18,0000 0000 0000 0000 000000
2017-03-16 10:50:12,0.08,9.06,0.00,24.47,27.25,30.40,14.30,50.33,1006.36,2024.99,1343.99,1549.35,1762.89,600.17,587.31,58.23,0000 0000 0000 0000 000000
2017-03-16 10:55:13,0.11,9.07,0.00,24.48,27.25,30.40,14.30,50.33,1006.36,2024.99,1343.28,1549.01,1762.12,600.20,587.33,58.28,0000 0000 0000 0000 000000
2017-03-16 11:00:15,0.02,9.07,0.00,24.48,27.24,30.40,14.21,50.30,1006.36,2024.99,1343.00,1548.90,1761.98,599.67,586.83,58.34,0000 0000 0000 0000 000000
2017-03-16 11:05:16,0.15,9.07,0.00,24.47,27.22,30.39,14.34,50.39,1006.36,2024.99,1342.40,1548.14,1761.29,600.16,587.39,58.39,0000 0000 0000 0000 000000
2017-03-16 11:10:17,0.06,9.08,0.00,24.46,27.22,30.39,14.22,50.46,1006.36,2024.99,1341.70,1547.97,1760.93,599.78,586.75,58.44,0000 0000 0000 0000 000000
2017-03-16 11:15:18,0.13,9.09,0.00,24.43,27.21,30.38,14.26,50.42,1006.36,2025.00,1341.03,1547.38,1760.23,599.76,587.03,58.49,0000 0000 0000 0000 000000
2017-03-16 11:20:19,0.06,9.09,0.00,24.45,27.20,30.39,14.25,50.32,1006.36,2025.02,1340.63,1547.01,1760.00,600.16,587.34,58.54,0000 0000 0000 0000 000000
2017-03-16 11:25:21,0.06,9.09,0.00,24.42,27.20,30.39,14.41,50.36,1006.37,2025.01,1340.01,1546.92,1759.55,600.19,587.48,58.59,0000 0000 0000 0000 000000
2017-03-16 11:30:22,0.08,9.10,0.00,24.40,27.20,30.38,14.29,50.23,1006.37,2025.01,1339.85,1546.20,1759.03,600.13,587.24,58.64,0000 0000 0000 0000 000000
2017-03-16 11:35:23,0.09,9.10,0.00,24.39,27.19,30.38,14.38,50.27,1006.37,2025.01,1339.06,1545.99,1758.61,600.02,587.38,58.69,0000 0000 0000 0000 000000
2017-03-16 11:40:25,0.13,9.11,0.00,24.39,27.17,30.39,14.19,50.23,1006.41,2025.02,1338.31,1545.59,1758.01,599.96,587.21,58.74,0000 0000 0000 0000 000000
2017-03-16 11:45:26,0.05,9.11,0.00,24.38,27.17,30.38,14.29,50.35,1006.41,2025.03,1337.98,1545.03,1757.66,599.89,587.13,58.79,0000 0000 0000 0000 000000
2017-03-16 11:50:28,0.08,9.12,0.00,24.39,27.17,30.36,14.32,50.24,1006.40,2025.02,1337.28,1544.97,1757.02,600.28,587.48,58.84,0000 0000 0000 0000 000000
2017-03-16 11:55:29,0.07,9.12,0.00,24.38,27.16,30.36,14.24,50.02,1006.41,2025.02,1337.00,1544.37,1756.92,599.91,587.18,58.89,0000 0000 0000 0000 000000
2017-03-16 12:00:31,0.12,9.12,0.00,24.37,27.15,30.36,14.29,50.16,1006.54,2025.04,1336.31,1544.00,1756.11,600.10,587.49,58.94,0000 0000 0000 0000 000000
2017-03-16 12:05:32,0.09,9.13,0.00,24.35,27.15,30.37,14.23,50.16,1006.70,2025.06,1335.65,1543.61,1755.90,600.05,587.55,58.99,0000 0000 0000 0000 000000
2017-03-16 12:10:33,0.12,9.14,0.00,24.34,27.13,30.35,14.20,50.03,1006.82,2025.17,1335.06,1543.05,1755.14,599.87,587.45,59.04,0000 0000 0000 0000 000000
2017-03-16 12:15:34,0.06,9.14,0.00,24.35,27.12,30.35,14.22,50.08,1006.84,2025.18,1334.39,1542.96,1754.90,599.77,587.39,59.09,0000 0000 0000 0000 000000
2017-03-16 12:20:36,0.15,9.15,0.00,24.35,27.12,30.34,14.32,50.08,1006.84,2025.36,1333.91,1542.29,1754.15,600.04,587.54,59.14,0000 0000 0000 0000 000000
2017-03-16 12:25:37,0.07,9.15,0.00,24.31,27.10,30.34,14.15,50.04,1006.85,2025.41,1333.11,1542.00,1753.96,599.78,587.56,59.19,0000 0000 0000 0000 000000
2017-03-16 12:30:38,0.13,9.15,0.00,24.28,27.10,30.35,14.39,50.13,1006.86,2025.54,1332.69,1541.76,1753.27,600.22,588.02,59.24,0000 0000 0000 0000 000000
2017-03-16 12:35:39,0.14,9.17,0.00,24.32,27.10,30.35,14.33,50.09,1006.87,2025.84,1332.03,1541.04,1752.99,600.10,587.79,59.30,0000 0000 0000 0000 000000
2017-03-16 12:40:40,0.09,9.17,0.00,24.30,27.09,30.33,14.33,50.02,1006.89,2025.91,1331.53,1540.99,1752.56,600.33,588.06,59.35,0000 0000 0000 0000 000000
2017-03-16 12:45:41,0.11,9.17,0.00,24.28,27.07,30.32,14.33,50.07,1006.88,2025.95,1330.82,1540.40,1752.01,600.40,588.04,59.40,0000 0000 0000 0000 000000
2017-03-16 12:50:43,0.09,9.18,0.00,24.32,27.07,30.31,14.33,50.11,1006.88,2025.93,1330.05,1540.01,1751.66,600.16,587.85,59.45,0000 0000 0000 0000 000000
2017-03-16 12:55:44,0.08,9.18,0.00,24.29,27.07,30.33,14.29,50.08,1006.87,2025.96,1329.66,1539.89,1751.03,599.90,587.68,59.50,0000 0000 0000 0000 000000